Location: Chimay
(50.0486°N, 4.3171°E)
Time: 15:31:08
(UTC+00:00)

Cosmos 2333 Rocket - Pass Details

Date: 08 August 2020
Orbit: 837 x 864 km, 70.8° (Epoch: 18 September)

Event Time Altitude Azimuth Distance (km) Brightness Sun altitude
Rises 22:30:37 0° 332° (NNW) 3,457 6.9 -22.0°
Reaches altitude 10° 22:33:14 10° 339° (NNW) 2,516 5.8 -22.1°
Maximum altitude 22:38:44 42° 51° (NE) 1,209 3.1 -22.4°
Enters shadow 22:41:23 27° 103° (ESE) 1,611 3.4 -22.5°
